Location: Maiden_LMO
(35.5760°N, 81.2120°W)
Time: 09:31:08
(UTC-04:00)

ADEOS II - Visible Passes

Search period start: 31 October 2014 00:00
Search period end: 09 November 2014 23:00
Orbit: 802 x 802 km, 98.3° (Epoch: 31 October)

Date Brightness Start Highest point End Pass type
(mag) Time Alt. Az. Time Alt. Az. Time Alt. Az.
31 Oct 5.4 06:04:41 10° ENE 06:07:12 13° E 06:09:42 10° ESE visible
31 Oct 3.0 18:58:41 10° S 19:03:49 56° W 19:08:59 10° NNW visible
01 Nov 2.4 07:16:04 10° NNE 07:21:20 75° ESE 07:26:34 10° S visible
02 Nov 3.6 05:50:18 10° NNE 05:55:16 41° E 06:00:11 10° SSE visible
02 Nov 5.0 18:48:12 10° SW 18:51:47 19° W 18:55:24 10° NW visible
03 Nov 4.7 05:25:00 10° NE 05:29:06 23° E 05:33:10 10° SE visible
03 Nov 4.0 18:20:53 10° SSW 18:25:35 33° W 18:30:19 10° NNW visible
04 Nov 5.4 05:00:47 10° ENE 05:02:50 12° E 05:04:53 10° ESE visible
04 Nov 2.8 17:54:19 10° S 17:59:29 61° W 18:04:42 10° NNW visible
05 Nov 2.6 06:11:45 10° NNE 06:17:00 69° ESE 06:22:13 10° S visible
05 Nov 5.6 19:12:41 10° WSW 19:13:43 11° W 19:14:44 10° W visible
06 Nov 3.8 05:46:03 10° NNE 05:50:55 37° E 05:55:45 10° SSE visible
06 Nov 4.9 18:43:37 10° SW 18:47:26 20° W 18:51:15 10° NW visible
07 Nov 4.8 05:20:49 10° NE 05:24:44 21° E 05:28:37 10° SE visible
07 Nov 3.9 18:16:26 10° SSW 18:21:14 36° W 18:26:04 10° NNW visible
08 Nov 5.5 04:57:02 10° ENE 04:58:27 11° E 04:59:52 10° ESE visible
08 Nov 2.6 17:49:56 10° S 17:55:08 66° WSW 18:00:23 10° NNW visible
09 Nov 2.7 06:07:26 10° NNE 06:12:40 63° E 06:17:51 10° S visible
09 Nov 5.4 19:07:31 10° WSW 19:09:20 12° W 19:11:09 10° WNW visible
